GFSSW_sfc_dewp_231.txt.gz
Dewpoint
50 53 52 51 52 53 53 52 53 52 51 52 52 53 52 51 51 46 44 48 49 51 55 39 39 37 33 39 46 45 38 34 33 33 32 33 31 37 40 38 40 52 53 55 54
52 52 51 52 53 53 53 53 52 53 52 52 53 51 52 51 48 43 47 48 50 50 46 37 35 38 37 39 42 42 38 37 37 33 33 35 35 34 36 36 37 52 53 52 56
52 50 51 51 52 53 53 53 53 53 53 53 53 51 52 51 43 41 46 47 49 49 45 39 34 37 40 37 38 40 39 38 38 35 38 36 36 35 34 35 42 50 52 52 55
52 50 51 51 51 51 52 53 53 53 53 53 52 52 53 48 31 41 46 46 48 42 39 38 34 34 33 33 35 35 36 39 39 39 39 39 40 34 33 34 42 50 53 54 52
51 50 51 51 51 50 51 51 53 53 53 52 51 52 48 36 36 38 49 46 42 40 36 37 37 36 35 35 34 33 35 35 36 41 42 43 42 40 40 39 40 47 54 54 53
50 50 51 51 50 51 51 51 52 51 52 51 51 51 43 34 39 41 42 43 42 39 37 38 36 39 32 29 32 33 32 30 32 34 39 41 41 40 40 40 39 43 47 53 54
50 50 51 51 50 51 52 52 52 51 51 51 50 46 38 35 41 41 41 42 42 41 39 39 39 38 37 30 33 31 26 25 22 28 35 39 37 39 40 40 39 39 40 46 52
51 50 51 51 51 51 52 51 51 51 50 49 50 46 34 41 42 41 42 42 42 42 41 40 39 40 36 35 29 25 24 21 22 20 22 36 32 33 35 38 38 37 37 41 45
51 51 51 51 51 51 51 51 51 50 49 50 46 42 34 46 40 41 42 41 42 42 41 38 39 36 35 30 26 23 16 20 21 22 22 30 28 30 32 30 30 32 35 36 44
51 50 50 51 50 51 53 52 50 49 49 46 43 37 37 36 39 40 41 41 41 41 41 38 36 32 32 29 23 26 25 23 18 18 23 18 17 18 19 19 22 23 27 34 37
51 50 50 50 49 51 50 44 36 33 38 35 35 36 37 40 42 40 42 41 40 39 33 35 30 28 29 30 29 28 27 26 26 27 26 23 20 20 21 20 19 18 21 23 27
50 50 50 50 49 50 44 39 39 38 33 37 38 38 38 42 37 40 43 37 36 32 34 31 29 30 31 29 29 28 26 26 28 28 26 25 24 24 24 23 22 20 19 23 30
50 50 50 49 48 46 44 43 46 44 35 34 38 39 39 42 36 37 41 39 36 34 34 31 30 32 31 29 28 27 27 26 26 28 27 25 22 23 23 26 24 23 20 18 26
49 50 50 48 42 40 42 45 45 44 24 24 33 40 40 39 35 40 42 39 35 35 35 31 32 31 29 27 28 24 30 29 28 26 23 25 18 23 23 19 23 23 22 21 18
49 49 49 48 40 41 44 45 45 41 2 23 28 38 38 34 34 39 42 39 35 35 33 29 32 33 29 30 30 28 32 30 29 28 26 24 18 21 21 18 19 21 20 20 21
49 49 48 44 42 43 45 44 42 22 -2 19 29 28 31 33 34 39 40 40 40 34 34 32 35 35 32 33 33 33 32 30 29 29 14 22 21 19 18 21 30 32 32 33 31
50 47 45 44 41 44 45 40 19 6 19 13 22 28 28 28 31 33 34 34 32 25 22 28 32 34 33 31 33 33 29 10 13 17 8 21 21 20 28 31 31 31 32 33 35
50 46 46 45 46 44 41 23 -0 5 13 27 28 28 26 28 27 28 28 29 35 32 27 24 17 32 33 32 31 34 31 21 12 14 16 22 17 22 31 32 33 32 34 35 36
47 42 42 43 45 43 30 11 7 16 27 27 28 21 22 28 26 26 32 31 35 35 21 25 17 31 35 35 35 30 24 32 20 17 17 20 18 29 30 31 32 32 32 33 36
41 40 41 42 43 39 22 14 15 28 30 29 15 23 15 24 23 24 26 33 32 36 33 28 21 26 33 33 35 35 34 26 21 8 8 16 17 22 28 30 30 30 30 32 35
39 34 40 42 41 29 14 12 25 28 32 26 18 23 25 23 23 24 24 33 30 33 33 33 30 20 30 29 30 32 29 29 28 25 17 10 15 31 31 31 31 30 34 34 35
37 23 39 41 25 28 15 24 28 27 30 32 30 29 26 26 24 24 26 27 26 26 27 35 31 22 18 34 33 33 33 33 24 20 23 22 18 34 30 31 33 33 34 33 35
34 32 40 39 16 17 27 27 28 30 30 30 29 29 29 26 19 26 27 26 25 28 30 31 28 15 15 26 28 27 29 30 30 30 24 21 20 31 30 31 32 32 32 32 33
33 29 35 34 32 25 21 24 26 30 30 30 27 30 28 24 27 24 26 28 28 33 36 33 28 25 19 25 30 23 29 29 29 19 23 24 24 27 29 30 32 32 32 32 32
34 27 31 28 28 28 25 24 25 24 30 30 28 27 26 18 17 21 26 26 28 33 29 30 26 23 26 29 29 30 30 28 24 26 23 24 25 30 31 31 32 32 33 32 32
32 31 31 31 30 29 27 24 23 27 27 27 26 27 27 25 20 20 25 24 23 25 24 27 21 27 19 28 29 27 30 24 22 28 28 28 26 34 35 35 31 32 32 31 31
36 32 32 29 29 28 25 24 24 26 28 27 28 26 24 26 27 28 28 28 27 25 24 24 24 23 14 26 24 23 25 27 29 29 30 22 30 35 33 32 30 30 31 31 30

GFSSW_sfc_dewp_234.txt.gz
Dewpoint
53 51 51 51 53 52 53 53 53 53 53 53 53 52 52 52 51 46 44 46 47 52 52 44 36 36 33 36 45 45 38 35 35 34 34 35 33 35 40 38 50 53 54 55 55
52 51 51 51 52 53 54 53 53 53 54 53 53 52 52 52 47 41 45 48 49 52 40 41 35 35 39 37 38 42 38 37 36 34 35 36 36 35 36 36 48 52 53 55 59
51 50 51 51 51 51 52 53 53 53 53 53 52 51 52 51 40 40 47 47 48 46 41 42 37 36 38 37 36 40 38 39 39 38 39 38 36 36 33 35 46 50 51 56 58
50 50 51 51 51 51 51 51 52 53 53 52 51 51 53 45 23 39 47 48 47 43 39 39 38 35 32 33 34 33 35 35 39 39 40 38 41 38 36 36 43 52 51 54 56
50 50 51 51 50 51 51 51 51 51 52 51 51 51 46 34 33 38 50 47 43 41 39 37 36 37 32 31 32 33 33 32 33 36 35 43 42 41 41 40 43 53 52 52 56
50 50 51 51 50 51 52 51 51 52 51 51 50 50 38 29 37 42 42 42 42 41 38 38 36 37 36 30 31 32 31 26 28 27 34 40 41 40 40 40 39 50 53 53 53
51 50 51 51 50 51 51 51 51 51 50 50 51 47 37 36 40 42 42 41 42 40 38 39 39 37 37 31 34 30 24 25 20 26 33 38 37 38 40 40 39 39 40 48 54
51 51 50 51 51 51 52 52 51 50 50 50 51 44 34 41 42 41 41 41 43 42 40 40 39 38 36 34 29 23 22 19 19 19 19 35 31 33 34 33 35 37 38 38 43
51 51 50 51 51 51 52 53 51 50 51 51 44 39 33 46 39 41 41 40 42 41 42 40 38 35 34 31 26 27 18 20 20 26 26 26 27 29 23 26 28 29 31 33 38
51 51 50 50 51 52 53 51 49 48 46 46 41 32 37 35 40 40 41 41 40 40 39 36 35 31 30 29 23 26 25 26 24 24 28 25 22 22 23 20 19 19 20 22 31
50 51 50 50 50 51 46 37 30 23 38 35 35 35 36 39 42 39 42 42 39 37 31 34 29 28 29 29 29 27 26 26 26 27 27 25 26 26 26 25 24 23 21 20 23
49 50 49 49 49 49 43 39 37 33 33 37 37 38 38 42 38 38 42 37 36 33 34 29 28 31 32 29 28 28 26 25 27 29 27 25 24 25 25 26 25 24 22 21 20
49 50 49 49 48 45 43 43 46 42 33 32 37 39 38 41 35 36 40 38 35 33 33 28 30 32 30 28 27 26 26 26 26 28 27 24 20 23 23 22 24 25 25 23 20
49 50 49 49 39 40 41 44 45 43 18 19 30 38 37 40 32 41 42 38 33 33 33 30 34 31 30 27 30 26 30 29 28 26 22 25 18 22 23 24 30 31 32 32 33
49 49 48 46 38 40 43 44 44 36 -1 15 26 36 35 33 33 35 42 37 33 33 30 28 31 30 29 31 32 29 32 30 29 29 24 22 19 20 21 22 29 30 31 33 35
49 48 47 41 42 42 44 44 38 19 -9 16 28 28 29 32 33 38 39 39 39 33 31 31 35 33 32 33 33 33 31 27 28 27 10 21 20 18 27 29 30 31 32 33 35
49 46 44 44 39 44 44 36 19 8 13 6 21 27 28 27 28 31 34 33 29 15 20 24 28 34 33 29 32 31 22 7 8 8 9 22 20 22 30 31 32 32 32 33 34
49 45 46 45 45 43 35 21 -0 -0 7 23 27 28 25 27 26 27 30 29 33 25 20 22 14 30 33 32 31 31 30 18 6 12 15 21 17 26 31 32 32 31 31 31 32
47 41 42 42 44 41 25 11 8 10 22 26 24 18 20 26 26 25 29 30 31 28 14 16 15 27 34 34 34 30 25 33 25 16 16 19 20 29 29 29 30 30 31 32 31
40 39 40 42 42 31 22 13 14 27 29 28 8 20 15 23 22 24 24 32 31 35 30 23 15 23 31 32 33 33 34 26 23 7 6 14 17 22 27 28 31 28 31 32 33
38 33 39 41 38 26 15 10 23 27 31 24 15 22 25 23 23 23 25 31 29 31 33 31 22 17 25 25 28 32 29 28 29 25 14 12 15 31 28 30 31 31 31 31 32
36 25 38 38 23 24 13 22 27 27 31 31 27 26 26 26 24 24 25 27 25 25 29 32 28 20 15 28 32 33 29 29 24 21 23 20 20 33 33 34 34 32 33 34 35
31 33 39 35 17 12 22 26 26 28 29 30 29 29 28 26 17 25 26 26 26 29 29 29 26 14 12 23 24 26 29 29 30 28 21 21 17 33 33 32 33 33 33 34 34
35 27 34 35 30 22 19 23 24 29 30 30 27 30 29 24 26 23 26 27 28 33 35 32 27 15 15 18 29 25 24 29 29 16 20 22 20 28 29 30 32 32 33 33 33
35 30 31 28 29 28 23 23 24 24 29 30 28 27 26 20 18 20 25 25 29 33 30 29 17 19 22 25 27 28 27 30 26 25 19 19 21 29 30 31 32 32 32 30 31
33 32 33 28 29 27 26 22 23 24 28 27 25 26 27 24 21 16 24 25 23 26 23 27 18 20 17 28 28 26 27 31 23 27 27 27 23 32 33 33 31 29 31 30 30
37 33 33 31 29 27 26 23 23 26 27 27 28 26 26 27 27 26 27 27 25 24 23 23 20 12 9 18 25 17 23 25 24 30 28 23 23 33 32 33 29 28 30 30 30

GFSSW_sfc_dewp_237.txt.gz
Dewpoint
51 51 51 51 52 53 53 53 53 53 54 53 53 52 52 53 47 41 41 45 45 51 48 40 36 35 33 36 43 44 38 34 35 33 33 36 35 36 37 40 52 53 53 54 53
50 51 51 51 51 51 52 53 53 53 53 53 52 51 52 53 46 37 44 50 50 49 38 39 35 34 39 36 38 43 38 37 37 35 36 37 36 36 35 38 49 51 53 56 56
50 50 51 51 51 51 51 51 52 53 53 52 52 51 53 50 34 35 47 50 49 47 40 40 39 36 36 36 35 40 38 39 39 39 40 37 36 37 33 36 45 48 52 56 55
50 50 50 51 50 51 51 51 51 52 52 51 51 52 52 41 14 36 48 49 48 44 39 38 38 35 32 32 33 33 34 34 35 35 41 41 41 38 38 38 40 50 53 55 56
50 50 51 51 50 51 52 52 51 52 51 51 51 52 40 34 35 38 48 46 43 41 39 36 36 36 31 31 30 32 32 30 28 31 31 40 41 41 40 39 48 52 52 54 55
51 50 50 51 50 51 51 52 52 51 50 51 52 50 35 33 39 41 42 43 42 40 38 38 36 37 36 31 30 31 31 27 25 28 27 36 40 40 40 40 40 52 51 51 54
51 51 50 51 50 51 52 52 51 50 50 51 52 45 38 37 40 42 41 42 42 42 38 38 39 36 36 29 33 30 23 23 19 22 31 39 35 38 40 38 39 39 45 50 53
51 51 50 50 50 51 52 52 51 50 51 52 51 39 36 40 41 41 41 41 42 43 40 40 39 37 36 35 29 23 21 18 23 24 25 33 30 31 25 30 31 31 35 39 39
51 51 50 50 50 51 52 52 52 51 51 50 41 35 31 42 39 41 40 40 42 41 42 40 37 34 33 30 26 28 20 23 25 28 28 24 24 26 25 21 20 20 24 27 29
50 51 50 50 51 52 51 50 48 42 42 43 39 26 34 36 39 41 42 42 40 40 37 36 33 30 30 28 22 26 25 26 25 27 28 25 24 26 27 25 23 21 21 20 21
49 50 50 50 50 49 42 31 24 28 37 35 35 33 36 39 42 39 42 40 39 36 31 33 30 28 29 29 28 27 25 24 26 28 27 25 25 25 25 25 25 25 23 21 21
48 50 50 49 49 48 43 37 34 32 31 36 37 38 38 42 37 37 42 37 35 31 32 29 29 31 31 29 28 27 26 25 26 29 27 25 24 24 27 30 30 30 31 33 33
48 50 49 49 47 44 42 42 45 41 31 27 37 39 36 39 34 36 40 37 35 31 31 28 32 31 29 29 28 27 26 26 26 28 26 25 20 22 24 29 30 31 32 34 34
48 50 49 48 37 40 40 44 45 40 16 14 24 31 35 39 30 41 41 37 33 32 33 29 33 31 29 30 31 26 30 29 28 25 21 25 15 20 23 27 30 32 32 33 34
47 49 48 43 37 39 42 44 43 32 -1 13 26 34 32 32 32 33 41 37 32 32 28 27 31 31 29 30 32 28 32 30 29 27 22 21 16 18 28 28 30 31 32 32 33
48 48 46 40 42 42 44 42 35 20 -9 13 25 28 28 29 31 36 35 37 38 30 28 30 33 33 32 32 32 32 30 23 25 22 8 19 18 18 26 29 30 31 31 31 32
49 46 43 43 38 43 42 32 19 10 12 5 20 27 27 27 27 29 33 32 27 14 17 24 25 33 33 29 30 30 19 5 8 8 9 21 19 24 29 31 31 30 30 31 32
49 45 45 44 44 42 32 21 -2 2 6 21 27 26 25 27 25 27 29 27 30 21 19 19 13 28 33 32 31 30 30 19 3 14 14 21 17 25 30 32 31 30 30 31 31
46 41 41 41 43 38 24 11 10 9 18 25 21 16 19 25 25 24 27 27 29 26 13 22 13 25 33 33 32 27 25 32 22 18 16 18 22 28 29 28 29 29 29 30 29
39 38 39 41 41 28 22 16 13 21 28 25 4 17 13 23 22 23 24 29 30 33 27 22 19 22 29 31 30 30 33 19 18 8 7 13 16 22 26 27 28 28 30 30 32
38 32 39 41 34 25 16 11 22 26 30 22 12 22 23 22 22 22 24 29 28 29 31 31 26 17 23 28 26 28 22 28 29 23 12 13 15 30 28 28 31 29 31 30 30
35 24 38 36 23 16 14 20 26 27 31 29 26 25 24 25 23 23 25 26 24 24 27 32 26 19 15 25 32 31 27 27 18 15 22 19 17 32 31 33 31 31 32 32 32
33 32 39 33 21 16 22 26 26 27 28 30 28 27 27 25 16 24 26 26 26 28 28 29 19 11 12 23 24 28 28 29 29 27 15 14 14 32 30 30 31 30 31 32 32
36 30 35 35 30 23 23 24 25 29 29 29 29 29 28 24 26 23 25 27 28 32 35 30 23 20 14 17 24 24 27 30 29 14 15 17 16 22 28 29 31 32 31 28 30
35 31 33 28 29 27 22 24 22 25 29 29 27 28 27 17 18 20 25 25 28 34 30 28 16 19 24 24 26 25 27 26 27 26 20 13 16 23 26 30 31 31 29 28 30
33 32 33 29 30 27 25 23 22 23 28 27 25 26 26 22 19 16 24 24 22 25 23 27 15 18 20 25 27 26 27 27 29 27 27 22 21 28 30 33 30 26 28 28 28
38 35 34 32 30 26 26 24 22 24 26 27 28 26 26 26 24 24 26 26 24 23 23 22 18 11 15 13 13 10 20 26 26 25 28 24 23 30 30 31 29 27 28 25 28

GFSSW_sfc_dewp_240.txt.gz
Dewpoint
51 51 51 51 52 52 52 53 53 53 53 52 52 51 52 53 49 41 41 46 47 49 47 38 36 36 35 37 42 43 37 33 33 34 33 36 34 36 36 43 51 53 51 53 59
50 51 51 51 51 51 52 52 52 52 52 52 52 52 53 53 45 37 46 51 49 49 39 37 36 36 38 36 38 42 36 36 38 38 38 37 36 36 35 40 49 51 54 56 61
50 51 51 51 51 52 52 52 52 52 51 52 52 53 53 49 32 34 47 50 50 47 40 39 39 36 34 34 34 39 37 37 36 36 39 39 38 38 35 37 40 44 52 54 58
50 50 51 51 51 51 52 52 52 52 52 51 52 53 51 38 18 37 48 50 49 44 39 37 37 35 31 31 30 32 32 31 33 29 34 40 42 38 39 39 43 50 54 54 56
50 50 50 51 51 51 52 52 52 52 51 51 53 50 37 35 36 39 48 46 43 41 39 36 35 35 30 32 31 31 30 30 28 26 30 36 40 42 40 40 49 53 54 54 54
51 51 50 50 50 51 52 53 52 51 51 52 53 46 35 32 40 40 42 43 42 41 38 38 35 37 34 30 29 30 30 27 24 23 24 30 38 38 39 39 39 52 52 53 54
51 51 50 50 50 51 51 52 52 51 52 52 52 41 37 37 39 41 41 41 42 42 38 38 38 34 35 28 33 30 21 22 27 26 27 32 34 37 24 29 32 36 39 47 50
51 51 51 50 50 51 51 52 52 51 52 52 49 38 35 40 41 40 41 41 42 42 40 40 39 36 34 34 29 27 21 18 25 28 28 31 29 28 25 22 21 25 27 32 37
50 51 51 50 51 51 50 52 51 50 50 49 38 30 28 42 38 41 41 40 41 41 41 40 36 33 32 28 26 28 22 25 25 28 28 24 22 25 27 25 23 22 21 20 21
49 50 50 50 50 50 49 49 47 42 40 39 36 22 32 35 39 41 41 42 40 38 36 35 33 30 30 27 22 26 24 25 24 27 28 25 25 28 30 26 26 27 30 32 32
48 50 50 49 50 49 40 29 23 30 37 34 34 32 35 39 41 38 42 39 37 35 30 32 30 28 28 28 27 26 24 23 26 28 26 25 25 28 30 30 31 32 33 34 34
47 49 50 49 49 47 42 37 36 35 29 35 37 37 38 41 35 36 41 36 34 30 31 29 29 32 30 29 28 27 25 25 26 28 26 25 23 27 29 31 31 31 32 33 34
47 50 49 50 46 44 41 41 44 41 27 23 36 38 35 38 33 37 39 36 33 31 30 28 30 32 29 30 29 28 26 25 26 28 26 23 21 22 26 31 31 32 32 32 32
47 49 49 46 37 39 39 44 44 37 16 13 22 28 33 36 30 41 41 36 33 31 31 29 32 30 29 29 31 26 30 29 28 25 20 23 15 21 27 28 30 31 31 31 32
47 49 48 44 38 38 42 44 43 31 1 12 24 32 32 31 32 33 41 36 32 31 27 27 30 31 29 30 32 28 31 29 29 26 20 20 15 17 28 27 29 30 30 31 32
48 47 45 40 41 41 43 40 33 20 -5 12 23 27 26 28 29 32 34 35 35 27 26 27 30 32 31 32 32 32 26 20 22 21 8 19 17 18 26 29 29 30 30 30 30
48 47 45 43 36 43 40 29 20 11 14 7 20 27 27 27 26 31 31 30 25 13 17 22 25 30 33 29 30 29 18 6 7 7 8 20 18 23 28 29 30 29 29 30 30
48 45 44 43 43 41 30 22 1 4 7 20 26 24 24 26 25 27 28 25 29 20 15 12 12 26 32 31 31 28 27 12 4 11 13 20 17 24 29 30 30 30 30 30 30
45 40 40 41 42 35 24 14 13 10 16 23 18 14 18 24 24 24 27 25 27 25 12 21 13 24 32 32 33 24 20 31 17 17 16 16 23 28 28 28 28 28 29 29 30
39 38 39 41 40 28 23 17 10 17 28 21 5 14 10 21 21 23 24 29 30 32 26 23 18 21 27 29 29 29 31 16 16 7 7 14 15 20 25 27 28 28 29 31 31
37 29 38 40 33 25 19 10 20 25 29 20 11 21 22 22 22 22 24 27 28 29 30 30 25 17 22 27 26 27 20 25 27 23 14 12 13 27 27 28 28 28 29 30 31
36 30 38 34 23 14 16 18 24 27 31 28 24 24 23 24 22 23 24 25 24 26 26 31 26 20 14 23 29 31 27 27 15 11 19 18 16 29 29 29 29 29 30 31 31
34 35 39 31 21 19 23 25 26 27 28 29 25 26 27 25 15 24 26 26 26 28 28 29 17 10 12 19 27 29 29 29 28 26 14 15 14 30 30 30 29 30 31 29 30
36 31 35 34 30 25 25 24 25 29 28 30 28 28 27 24 26 22 25 26 27 30 34 28 19 12 14 17 23 24 26 30 29 15 14 17 13 17 20 28 26 26 28 26 27
36 33 32 28 27 26 23 24 22 26 29 29 27 27 25 19 19 22 26 25 29 34 30 27 12 18 21 23 24 25 26 27 25 23 20 13 19 18 22 25 24 31 28 24 26
33 32 33 29 30 25 25 23 21 23 27 27 25 25 26 21 20 15 24 23 22 25 24 27 13 15 10 20 27 25 25 26 25 26 27 26 24 26 27 28 31 27 22 23 24
39 37 35 32 30 27 26 24 22 23 26 27 28 26 26 26 22 25 25 25 23 24 23 22 16 7 -0 12 10 13 20 25 26 25 23 20 23 28 27 29 29 28 26 24 27